Regional Weather Roundup
Issued by NWS

Home | Current Version | Previous Version | Graphics & Text | Print | Product List | Glossary On
Versions: 1 2 3 4 5 6 7 8 9 10 11 12 13 14 15 16 17 18 19 20 21 22 23 24 25 26 27 28 29 30 31 32 33 34 35 36 37 38 39 40 41 42 43 44 45 46 47 48 49 50
000
ASUS43 KTOP 251059
RWRKS

WEATHER ROUNDUP FOR KANSAS
NATIONAL WEATHER SERVICE GOODLAND KS
500 AM CST THU DEC 25 2014

NOTE:  "FAIR" INDICATES FEW OR NO CLOUDS BELOW 12,000 FEET WITH NO
SIGNIFICANT WEATHER AND/OR OBSTRUCTIONS TO VISIBILITY.

KSZ001>006-013>018-027>032-041>047-251200-
NORTHWEST KANSAS

CITY           SKY/WX    TMP DP  RH WIND       PRES   REMARKS
GOODLAND       PTCLDY    26  20  77 SW5       29.40F
HAYS           CLOUDY    30  16  55 SE10      29.53F WCI  21
HILL CITY      CLOUDY    33  18  53 S10       29.48F WCI  25
RUSSELL        CLOUDY    34  21  59 S22       29.52F WCI  22
$$

KSZ061>065-074>080-084>089-251200-
SOUTHWEST KANSAS

CITY           SKY/WX    TMP DP  RH WIND       PRES   REMARKS
DODGE CITY     MOCLDY    32  18  56 S17       29.53F WCI  21
ELKHART          N/A     35  18  50 SW10        N/A  WCI  27
GARDEN CITY    MOCLDY    27  19  72 S9        29.48F
GREAT BEND     CLOUDY    34  19  55 S16       29.56F WCI  23
LIBERAL        MOCLDY    34  18  51 S13       29.51F WCI  25
$$

KSZ066>073-081>083-090>101-251200-
SOUTHEAST KANSAS

CITY           SKY/WX    TMP DP  RH WIND       PRES   REMARKS
CHANUTE        CLEAR     32  28  85 S12       29.81F WCI  23
COFFEYVILLE    FAIR      32  28  85 S9        29.83F
HUTCHINSON     CLOUDY    34  23  64 S10       29.65F WCI  26
NEWTON         CLOUDY    32  21  64 S13       29.68F WCI  22
PARSONS        CLEAR     33  29  85 S7        29.83F
WICHITA INTL   MOCLDY    35  24  64 S17       29.69F WCI  25
WICHITA JABRA  MOCLDY    34  24  67 S16       29.68F WCI  24
WINFIELD       PTCLDY    34  25  69 S15       29.74F WCI  24
$$

KSZ007>012-019>026-033>040-048>060-102>105-251200-
NORTHEAST KANSAS

CITY           SKY/WX    TMP DP  RH WIND       PRES   REMARKS
CONCORDIA      CLOUDY    35  23  61 S17       29.59F WCI  25
EMPORIA        PTCLDY    30  26  85 S22       29.72F WCI  17
LAWRENCE       MOCLDY    29  26  89 VRB5      29.78F
MANHATTAN      PTCLDY    36  24  62 S7        29.68F
OLATHE IND     PTCLDY    30  28  92 S13       29.79F WCI  20
OLATHE EXE     FAIR      31  28  89 S9        29.79F
SALINA         MOCLDY    36  24  62 S14       29.63F WCI  27
TOPEKA BILLARD MOCLDY    35  27  72 S10       29.75F WCI  27
TOPEKA FORBES  MOCLDY    33  27  78 S12       29.74F WCI  24
$$


USA.gov is the U.S. government's official web portal to all federal, state and local government web resources and services.